Temperature
5 5 5 6 6 6 6 6 6 6 6 6 6 6 6 6 6 6 6 6 6 6 6 6 6 6 5 5 5 5 5 4 4 4 4 4 3 3
5 5 5 5 5 5 5 5 5 5 5 5 6 6 6 6 5 5 5 5 5 5 5 5 5 5 5 5 5 5 4 4 4 4 4 3 3 3
4 4 4 5 5 5 5 5 5 5 5 5 5 5 5 5 5 5 5 5 5 5 5 5 5 5 5 4 4 4 4 4 4 3 3 3 3 3
4 4 4 4 4 4 4 4 4 4 4 5 5 5 5 5 5 5 5 5 4 4 4 4 4 4 4 4 4 4 3 3 3 3 3 3 2 2
3 3 4 4 4 4 4 4 4 4 4 4 4 4 4 4 4 4 4 4 4 4 4 4 4 4 4 3 3 3 3 3 3 3 3 2 2 2
3 3 3 3 3 3 3 3 3 3 3 3 3 3 3 4 4 4 4 4 4 3 3 3 3 3 3 3 3 3 3 2 2 2 2 2 2 2
2 2 2 2 2 2 2 2 2 2 2 3 3 3 3 3 3 3 3 3 3 3 3 3 3 3 3 2 2 2 2 2 2 2 1 1 1 1
1 1 1 1 1 2 2 2 2 2 2 2 2 2 2 2 2 2 2 2 2 2 2 2 2 2 2 2 2 2 1 1 1 1 1 1 1 1
0 0 0 1 1 1 1 1 1 1 1 1 1 1 1 2 2 2 2 2 1 2 2 2 2 2 2 1 1 1 1 1 1 1 0 0 0 0
-0 -0 -0 0 0 0 0 0 1 1 1 1 1 1 1 1 1 1 1 1 1 1 1 1 1 1 1 1 1 1 1 0 0 0 -0 -0 -0 -0
-1 -1 -1 -1 -0 -0 -0 -0 -0 -0 -0 -0 -0 -0 0 0 0 0 0 0 0 0 0 0 0 0 1 1 0 0 0 0 -0 -0 -0 -1 -1 -1
-2 -1 -1 -1 -1 -1 -1 -1 -1 -1 -1 -1 -1 -1 -1 -1 -0 -0 -0 -1 -1 -1 -1 -1 -1 -1 -1 -0 -0 -0 -0 -1 -1 -1 -1 -1 -1 -1
-2 -2 -2 -2 -2 -2 -2 -2 -1 -1 -2 -1 -1 -1 -1 -1 -1 -1 -1 -1 -1 -1 -1 -2 -2 -2 -2 -2 -1 -1 -1 -1 -1 -1 -1 -1 -2 -2
-3 -3 -2 -2 -2 -2 -2 -2 -2 -2 -2 -2 -2 -2 -2 -2 -2 -2 -2 -2 -2 -2 -2 -2 -2 -2 -2 -2 -2 -2 -2 -2 -2 -2 -2 -2 -2 -2
-3 -3 -3 -3 -3 -3 -3 -3 -3 -3 -3 -3 -3 -3 -3 -3 -2 -2 -2 -2 -2 -2 -2 -3 -3 -2 -3 -3 -3 -2 -2 -2 -2 -2 -2 -2 -2 -3
-4 -3 -3 -3 -3 -3 -3 -3 -3 -3 -3 -4 -3 -3 -3 -3 -3 -3 -3 -3 -3 -3 -3 -3 -3 -3 -3 -3 -3 -3 -3 -3 -3 -3 -3 -3 -3 -3
-4 -4 -4 -4 -4 -4 -4 -4 -4 -4 -4 -4 -4 -4 -4 -4 -4 -4 -4 -4 -3 -3 -3 -3 -3 -3 -4 -4 -3 -3 -3 -3 -3 -3 -3 -3 -4 -4
-4 -4 -4 -4 -5 -5 -5 -5 -5 -4 -4 -5 -5 -5 -4 -4 -4 -4 -4 -4 -4 -4 -4 -4 -4 -4 -4 -4 -4 -4 -4 -4 -4 -4 -4 -4 -4 -4
-5 -5 -5 -5 -5 -5 -5 -5 -5 -5 -5 -5 -5 -5 -5 -5 -5 -5 -5 -5 -5 -5 -5 -5 -5 -5 -5 -5 -4 -5 -5 -5 -5 -5 -5 -5 -5 -4
-5 -5 -5 -6 -6 -6 -6 -6 -6 -6 -6 -6 -6 -6 -6 -6 -6 -5 -5 -5 -5 -5 -5 -5 -5 -6 -6 -6 -5 -5 -5 -5 -5 -5 -5 -5 -5 -5
-6 -6 -6 -6 -6 -6 -6 -6 -6 -6 -6 -6 -6 -6 -6 -6 -6 -6 -6 -6 -6 -6 -6 -6 -6 -6 -6 -6 -6 -5 -5 -6 -6 -6 -6 -6 -5 -5
-7 -7 -7 -7 -7 -7 -7 -7 -7 -7 -7 -7 -7 -7 -7 -7 -6 -6 -6 -7 -7 -6 -6 -6 -6 -6 -6 -6 -6 -6 -6 -6 -6 -6 -6 -6 -6 -6
-8 -7 -7 -7 -7 -7 -7 -7 -7 -7 -7 -7 -7 -7 -7 -7 -7 -7 -7 -7 -7 -7 -7 -7 -6 -6 -6 -6 -6 -6 -6 -6 -6 -6 -6 -6 -6 -6
Wind_Speed
2 2 1 1 1 1 1 2 3 2 3 3 2 1 1 2 3 3 4 5 5 6 6 6 6 5 5 5 6 5 5 5 5 5 6 7 7 8
2 2 2 1 1 1 1 1 1 2 3 2 2 1 1 2 2 2 3 4 5 6 6 6 6 6 6 5 6 6 5 5 6 6 7 8 8 9
2 2 2 2 2 1 1 1 1 1 3 2 1 1 1 1 2 2 3 3 4 5 5 6 6 6 6 6 6 6 6 6 7 7 7 8 8 9
3 3 3 2 2 2 2 2 2 2 2 3 2 1 2 2 2 2 2 3 4 5 5 5 6 6 6 6 6 7 7 7 7 7 8 8 8 9
3 4 4 3 3 2 2 3 2 2 2 2 2 2 1 1 2 2 2 2 3 4 4 5 5 6 6 6 6 7 7 7 7 7 8 8 8 8
2 3 4 4 4 4 3 3 2 2 2 2 2 2 2 1 1 1 2 2 2 3 3 4 5 5 6 6 7 7 7 7 7 7 7 8 8 8
2 2 3 3 5 4 3 3 3 2 2 2 2 2 2 2 2 1 2 2 3 1 2 3 3 4 6 7 7 7 7 7 7 7 7 7 7 8
2 2 2 2 3 4 4 4 4 3 3 3 3 3 3 3 2 2 2 2 3 1 1 3 2 3 5 6 7 7 7 7 8 8 8 7 7 8
2 2 2 2 2 2 2 3 3 4 4 4 4 4 4 3 3 3 3 3 4 2 1 3 2 4 5 6 7 8 8 8 8 8 8 7 7 8
3 3 3 3 3 3 2 2 2 2 3 3 3 4 3 3 4 4 4 2 2 2 1 3 3 3 4 6 6 7 7 7 7 7 7 7 8 8
3 3 3 3 4 4 3 3 2 2 3 3 4 4 5 5 3 1 1 1 2 2 1 2 2 2 2 3 5 5 5 5 6 6 7 7 8 9
2 3 4 5 5 5 4 4 4 3 2 2 2 3 3 3 3 3 3 3 2 2 2 1 1 1 2 2 2 3 4 5 6 7 8 9 9 7
3 3 3 5 5 5 4 3 4 3 2 2 1 1 1 1 2 2 3 3 3 3 2 1 1 1 2 3 2 3 3 4 5 6 8 9 9 7
3 3 3 4 4 4 3 3 3 2 1 1 1 1 2 2 2 2 2 3 3 4 5 3 2 3 3 4 4 2 3 4 4 5 6 8 8 8
3 4 4 4 3 2 2 3 2 1 2 2 2 2 2 2 1 1 2 2 2 3 3 4 3 3 4 4 4 3 3 3 4 4 5 5 5 5
2 3 3 3 2 1 1 1 1 1 2 2 2 2 1 1 1 1 2 2 2 2 3 3 4 4 4 4 4 5 4 3 3 4 5 5 7 7
2 1 1 1 1 1 1 1 1 1 1 1 2 1 1 1 2 2 2 2 2 3 3 2 3 4 5 4 4 5 4 4 4 4 3 5 5 7
1 1 2 2 2 2 2 1 1 1 1 2 2 2 2 2 2 2 2 2 3 3 3 2 2 2 2 3 6 5 4 4 4 4 3 4 6 5
1 1 2 2 2 2 2 2 2 2 1 2 2 2 2 2 2 2 2 3 3 3 3 2 2 2 3 5 4 5 4 4 3 3 4 4 6 6
0 1 1 2 2 2 2 2 2 2 2 2 2 2 2 3 3 3 3 3 3 4 3 3 3 4 5 5 4 4 7 5 4 5 4 4 5 8
1 1 1 1 2 2 2 2 2 2 2 2 2 2 3 3 3 3 3 4 4 4 5 5 5 5 3 2 3 5 4 7 7 5 4 4 5 4
1 1 1 1 1 2 2 2 2 2 2 2 3 3 3 3 3 3 3 4 4 4 5 4 3 2 2 4 5 6 5 5 6 8 9 8 5 4
2 2 2 2 2 2 2 2 3 3 3 3 3 3 3 3 3 3 4 4 4 4 4 4 3 2 3 4 5 5 6 6 4 4 5 8 10 12
Wind_Direction
184 187 201 210 192 200 196 189 174 207 245 245 236 247 250 247 255 251 257 258 257 258 258 263 265 268 271 266 261 265 265 265 271 277 278 280 286 292
182 180 205 219 200 183 195 215 201 195 228 230 232 272 278 277 262 248 253 260 262 258 258 261 262 266 269 268 264 265 262 262 265 273 277 278 281 286
193 195 215 210 207 213 207 208 209 192 232 260 248 294 260 272 297 269 264 265 269 261 260 258 259 264 267 265 263 261 258 260 265 271 275 278 280 283
209 205 220 210 211 218 207 215 218 209 208 250 262 249 255 260 260 260 280 273 276 265 266 264 261 262 264 264 264 264 260 260 264 269 275 275 278 283
217 213 217 205 219 225 221 219 217 220 213 224 252 253 254 274 281 280 281 292 292 275 268 266 267 266 265 265 266 268 262 260 262 267 271 271 275 279
229 222 217 211 221 219 225 223 215 207 204 211 247 250 253 255 244 254 285 287 291 293 283 277 273 272 272 272 271 271 267 262 262 266 269 270 271 276
253 239 233 232 232 226 227 217 208 212 214 227 244 254 253 246 248 238 267 293 284 276 302 296 290 287 279 276 274 272 267 266 264 266 269 270 273 278
254 259 258 261 250 243 236 226 216 218 224 232 241 240 248 243 243 235 242 275 277 274 286 285 289 277 281 274 270 268 272 273 269 268 269 268 272 277
244 256 261 263 266 237 241 248 253 249 236 228 236 243 241 234 224 232 230 243 253 251 275 271 270 270 283 277 271 269 271 273 274 273 273 273 277 280
232 235 241 245 241 220 211 223 239 255 250 239 228 240 246 237 227 233 232 252 275 271 235 255 271 273 289 287 278 273 275 273 273 275 276 279 281 282
240 239 233 230 239 232 216 217 236 261 269 256 262 264 257 248 230 210 218 236 270 264 236 228 256 282 283 281 291 284 280 282 285 287 287 288 288 286
255 251 245 236 237 235 219 213 229 247 249 281 294 290 281 257 236 226 219 228 254 258 222 210 251 322 295 272 294 301 303 301 298 295 298 299 295 293
250 255 239 235 241 238 236 223 230 231 227 230 249 269 284 275 259 239 222 223 235 247 217 190 242 258 250 277 285 284 281 289 289 287 294 292 290 285
246 251 235 231 236 239 240 221 222 236 217 211 232 254 259 267 280 274 255 248 251 250 232 216 233 239 250 269 274 278 285 282 278 284 290 292 290 284
243 240 234 231 232 229 227 225 222 207 202 224 236 249 258 270 305 326 335 331 321 302 256 242 237 238 236 246 261 272 283 274 268 276 285 285 282 283
248 234 229 224 211 197 214 224 184 198 211 225 238 240 244 254 258 275 272 282 289 299 316 281 256 234 240 249 249 262 261 259 270 283 286 284 281 272
224 218 203 189 182 186 191 194 185 203 230 234 234 240 243 248 255 266 261 268 261 270 289 317 320 288 255 237 251 253 257 266 262 270 277 282 275 271
238 200 194 190 200 210 217 225 225 227 231 232 229 233 242 245 254 260 261 253 257 262 268 282 304 317 311 281 234 241 249 254 266 270 263 271 276 272
184 188 196 198 207 212 215 225 243 243 237 233 234 237 247 250 250 254 259 261 264 265 267 263 261 257 269 279 277 233 232 254 266 269 258 254 263 273
160 204 211 213 214 218 221 228 234 236 238 237 234 236 239 244 249 253 256 259 265 271 269 263 247 242 240 254 270 275 255 245 248 258 265 268 269 277
320 280 249 238 236 233 230 228 229 234 238 235 241 243 241 241 248 253 257 262 266 263 263 264 263 273 269 265 275 276 273 262 253 249 251 267 275 274
313 296 285 265 255 245 234 229 234 235 237 239 242 248 247 243 246 252 256 259 260 259 263 268 281 284 261 250 262 272 283 293 292 276 261 252 247 245
314 296 283 274 263 250 238 233 232 236 234 235 241 246 248 249 253 255 257 258 261 265 271 275 279 274 266 256 261 268 273 284 289 294 286 280 266 269
Height
1531 1533 1534 1536 1537 1539 1540 1541 1542 1541 1542 1543 1544 1545 1546 1547 1547 1548 1548 1549 1549 1549 1550 1550 1550 1550 1550 1550 1550 1550 1550 1550 1549 1549 1549 1548 1547 1546
1527 1529 1530 1532 1533 1534 1536 1537 1538 1539 1538 1539 1540 1541 1542 1543 1544 1544 1544 1545 1545 1545 1546 1546 1546 1546 1546 1546 1546 1546 1546 1546 1545 1545 1545 1544 1543 1542
1523 1524 1526 1528 1529 1530 1532 1533 1534 1535 1535 1535 1536 1537 1538 1539 1539 1540 1540 1541 1541 1541 1541 1542 1542 1542 1542 1542 1542 1542 1542 1541 1541 1541 1540 1540 1539 1538
1519 1520 1522 1523 1525 1526 1527 1528 1530 1531 1531 1531 1532 1533 1534 1535 1535 1535 1536 1536 1537 1537 1537 1537 1537 1537 1538 1538 1538 1537 1537 1537 1536 1536 1535 1535 1534 1533
1515 1516 1517 1519 1520 1521 1523 1524 1525 1526 1527 1527 1527 1528 1529 1530 1530 1531 1531 1532 1532 1532 1532 1532 1532 1533 1533 1533 1533 1532 1532 1532 1531 1531 1530 1530 1529 1529
1510 1512 1513 1514 1515 1517 1518 1519 1520 1522 1523 1523 1523 1524 1524 1525 1526 1526 1526 1527 1527 1528 1528 1528 1528 1528 1528 1528 1527 1527 1527 1526 1526 1526 1525 1525 1524 1523
1506 1507 1509 1510 1511 1512 1513 1514 1516 1517 1518 1518 1519 1519 1520 1520 1520 1521 1521 1521 1522 1522 1522 1523 1523 1522 1523 1522 1522 1522 1521 1521 1521 1520 1520 1519 1519 1518
1501 1503 1504 1505 1506 1507 1508 1510 1511 1512 1513 1514 1514 1514 1515 1516 1516 1516 1516 1516 1516 1517 1517 1517 1517 1517 1517 1517 1516 1516 1516 1516 1515 1515 1515 1514 1513 1513
1497 1498 1499 1500 1501 1502 1503 1504 1506 1507 1508 1509 1509 1509 1510 1511 1512 1512 1512 1511 1511 1511 1512 1511 1512 1511 1512 1511 1511 1511 1511 1511 1510 1510 1509 1509 1508 1507
1493 1494 1495 1496 1497 1498 1499 1499 1500 1501 1503 1503 1504 1504 1505 1506 1507 1507 1507 1506 1507 1507 1507 1506 1506 1506 1506 1506 1506 1506 1506 1505 1505 1504 1504 1503 1503 1502
1488 1489 1490 1491 1492 1493 1494 1495 1495 1496 1497 1498 1499 1500 1500 1501 1501 1502 1502 1502 1501 1501 1502 1502 1501 1501 1501 1500 1501 1501 1501 1500 1500 1499 1498 1498 1497 1496
1483 1484 1485 1487 1488 1488 1489 1490 1491 1492 1493 1493 1494 1495 1495 1496 1496 1497 1497 1497 1496 1496 1496 1497 1497 1497 1495 1495 1495 1496 1495 1495 1495 1494 1493 1492 1492 1491
1478 1479 1481 1482 1483 1484 1485 1486 1486 1487 1488 1488 1489 1490 1490 1491 1491 1492 1492 1492 1492 1492 1493 1493 1492 1492 1492 1490 1489 1490 1490 1489 1489 1488 1488 1487 1486 1486
1474 1475 1476 1477 1478 1479 1480 1481 1482 1483 1483 1484 1484 1484 1485 1486 1486 1487 1487 1487 1488 1488 1488 1489 1488 1488 1487 1485 1484 1484 1485 1484 1484 1483 1482 1481 1481 1480
1470 1470 1471 1472 1473 1474 1475 1476 1477 1478 1478 1479 1479 1480 1480 1481 1481 1482 1482 1482 1483 1483 1483 1484 1484 1483 1483 1481 1480 1479 1479 1478 1478 1477 1477 1476 1475 1474
1465 1466 1467 1467 1468 1469 1470 1471 1472 1473 1474 1474 1474 1475 1476 1476 1476 1477 1477 1477 1477 1478 1479 1479 1479 1479 1477 1477 1476 1475 1474 1474 1472 1472 1471 1470 1469 1468
1461 1461 1462 1463 1464 1465 1466 1466 1467 1468 1469 1470 1470 1470 1471 1471 1472 1472 1472 1472 1472 1472 1472 1473 1473 1473 1473 1472 1470 1470 1469 1468 1468 1467 1465 1464 1464 1463
1457 1457 1458 1458 1460 1461 1462 1462 1463 1464 1464 1465 1466 1466 1466 1466 1467 1467 1468 1468 1467 1467 1467 1467 1467 1467 1467 1466 1466 1464 1463 1463 1462 1462 1461 1459 1457 1457
1453 1453 1454 1455 1456 1457 1458 1459 1459 1460 1460 1461 1461 1462 1462 1462 1462 1462 1462 1463 1462 1463 1463 1463 1462 1462 1461 1459 1459 1460 1459 1458 1457 1456 1456 1454 1452 1452
1450 1450 1451 1451 1452 1453 1454 1454 1455 1456 1456 1457 1457 1457 1458 1458 1458 1458 1458 1458 1458 1458 1457 1458 1458 1458 1457 1456 1454 1454 1455 1453 1452 1451 1450 1449 1448 1447
1447 1447 1447 1448 1449 1450 1450 1451 1451 1452 1452 1452 1453 1453 1453 1453 1453 1453 1453 1453 1453 1453 1453 1453 1453 1454 1453 1452 1450 1448 1448 1448 1447 1446 1444 1443 1441 1440
1444 1444 1444 1445 1446 1446 1447 1447 1447 1447 1448 1448 1448 1449 1449 1449 1449 1449 1449 1449 1449 1449 1448 1449 1449 1448 1448 1447 1444 1443 1442 1442 1442 1441 1440 1439 1437 1434
1441 1441 1441 1441 1442 1442 1443 1443 1443 1443 1444 1444 1444 1444 1445 1445 1444 1444 1445 1445 1445 1444 1444 1444 1444 1443 1442 1442 1440 1438 1437 1436 1435 1435 1434 1433 1433 1431